This is the latest recevied weather packets stored in our database for station/object W9QL-13. If no packets are shown the sender has not sent any weather packets the latest 10 day(s).
| Time | Temp. | Humidity | Pressure | Rain* | Wind** | Luminosity | Snow |
|---|---|---|---|---|---|---|---|
| 1777908324 | 23.33° C | 32% | 1000.4 hPa | 0 mm | - | - | - |
| 1777907994 | 22.78° C | 32% | 1000.5 hPa | 0 mm | - | - | - |
| 1777907664 | 22.78° C | 32% | 1000.6 hPa | 0 mm | - | - | - |
| 1777907364 | 22.78° C | 31% | 1000.7 hPa | 0 mm | - | - | - |
| 1777907064 | 22.78° C | 33% | 1000.6 hPa | 0 mm | - | - | - |
| 1777906765 | 22.78° C | 33% | 1000.8 hPa | 0 mm | - | - | - |
| 1777906464 | 22.78° C | 35% | 1000.9 hPa | 0 mm | - | - | - |
| 1777906164 | 22.22° C | 36% | 1000.9 hPa | 0 mm | - | - | - |
| 1777905864 | 21.67° C | 35% | 1000.8 hPa | 0 mm | - | - | - |
| 1777905564 | 21.67° C | 37% | 1000.9 hPa | 0 mm | - | - | - |
| 1777905264 | 21.11° C | 38% | 1001 hPa | 0 mm | - | - | - |
| 1777904964 | 20.56° C | 38% | 1001 hPa | 0 mm | - | - | - |
| 1777904664 | 20° C | 39% | 1001.1 hPa | 0 mm | - | - | - |
| 1777904334 | 19.44° C | 41% | 1001.2 hPa | 0 mm | - | - | - |
| 1777904004 | 18.89° C | 43% | 1001.2 hPa | 0 mm | - | - | - |
| 1777903705 | 18.33° C | 43% | 1001.2 hPa | 0 mm | - | - | - |
| 1777903404 | 17.78° C | 45% | 1001.3 hPa | 0 mm | - | - | - |
| 1777903104 | 17.78° C | 46% | 1001.3 hPa | 0 mm | - | - | - |
| 1777902804 | 17.22° C | 49% | 1001.4 hPa | 0 mm | - | - | - |
| 1777902503 | 16.67° C | 48% | 1001.5 hPa | 0 mm | - | - | - |
| 1777902203 | 16.67° C | 51% | 1001.7 hPa | 0 mm | - | - | - |
| 1777901903 | 16.11° C | 53% | 1001.7 hPa | 0 mm | - | - | - |
| 1777901604 | 16.11° C | 55% | 1001.8 hPa | 0 mm | - | - | - |
| 1777901303 | 15.56° C | 56% | 1001.9 hPa | 0 mm | - | - | - |
| 1777901003 | 15.56° C | 56% | 1002.1 hPa | 0 mm | - | - | - |
* Rain latest hour (hover to see other rain measurements)
** Current wind speed in m/s (hover to see current wind gust speed)